User: anonymous   Login
Location: Unspecified
(0.0000°N, 0.0000°E)
Time: 22:21:49
(UTC+00:00)
Language:

UHF F/O F4 - Orbit

View from above orbital plane
View from above orbital plane
View from above satellite
View from above satellite

Ground track
Ground track

The orbit data is extracted from the following two-line orbital elements,

1 23467U 95003A   17293.27152175 0.00000000  00000-0  00000-0 0    04
2 23467   9.7121  26.5733 0003061 211.9113 148.1990  1.00270000    00
Epoch (UTC): 20 October 2017 06:30:59
Eccentricity: 0.0003061
inclination: 9.7121°
perigee height: 35774 km
apogee height: 35799 km
right ascension of ascending node: 26.5733°
argument of perigee: 211.9113°
revolutions per day: 1.00270000
mean anomaly at epoch: 148.1990°
orbit number at epoch: 0

The dashed part of the orbit path shows where the satellite is in the earth's shadow,  

DLR